Home > Weather > Shizuoka > Past weeks

Flag for Japan Past Weather in Shizuoka, Japan — Yesterday and Last 2 Weeks

Now
82 °F

Warm.


Feels Like: 88 °F
Forecast: 67 / 90 °F
Wind: 8 mph from Southeast

Location: Omaezaki

Current Time: Jul 30, 2016 at 4:29:03 PM

Latest Report: Jul 30, 2016 at 3:00 PM


Visibility: 13 mi

Pressure: 29.90 "Hg

Humidity: 74%

Dew Point: 73 °F

Location of ShizuokaLocation

Past Weather in Shizuoka — Graph

°F

Shizuoka Temperature Yesterday

Maximum temperature yesterday: 83 °F (at 12:00 PM)
Minimum temperature yesterday: 74 °F (at 3:00 AM)
Average temperature yesterday: 78 °F

High & Low Weather Summary for the Past Weeks

 TemperatureHumidityPressure
High85 °F (Jul 18, 2:00 PM)99% (Jul 18, 5:00 AM)30.00 "Hg (Jul 18, 5:00 AM)
Low70 °F (Jul 26, 11:00 PM)62% (Jul 23, 2:00 PM)29.44 "Hg (Jul 15, 3:00 PM)
Average77 °F84%29.86 "Hg
* Reported Jul 15 3:00 PM — Jul 30 3:00 PM, Shizuoka, Weather by CustomWeather, © 2016

Note: Actual official high and low records may vary slightly from our data, if they occured in-between our weather recording intervals... More about our weather records

Advertising

Shizuoka Weather History for the Previous 24 Hours

Scroll right to see more
 ConditionsComfort  
Time TempWeatherWind HumidityBarometerVisibility
3:00 PM
Sat, Jul 30
82 °FWarm.8 mph74%29.90 "Hg12 mi
2:00 PM83 °FWarm.10 mph74%29.92 "Hg12 mi
1:00 PM82 °FWarm.12 mph78%29.93 "Hg12 mi
12:00 PM84 °FWarm.8 mph66%29.94 "Hg12 mi
11:00 AM82 °FWarm.6 mph67%29.96 "Hg12 mi
10:00 AM81 °FWarm.5 mph77%29.96 "Hg12 mi
9:00 AM79 °FWarm.7 mph79%29.96 "Hg12 mi
8:00 AM77 °FWarm.7 mph85%29.96 "Hg12 mi
7:00 AM76 °FMild.6 mph88%29.96 "Hg12 mi
6:00 AM74 °FMild.7 mph93%29.95 "Hg12 mi
5:00 AM73 °FMild.6 mph95%29.93 "Hg12 mi
4:00 AM73 °FMild.6 mph96%29.93 "Hg12 mi
3:00 AM74 °FMild.6 mph96%29.93 "Hg12 mi
2:00 AM75 °FMild.7 mph97%29.92 "Hg12 mi
1:00 AM75 °FMild.3 mph95%29.93 "Hg12 mi
12:00 AM76 °FMild.2 mph94%29.95 "Hg12 mi
11:00 PM
Fri, Jul 29
76 °FMild.3 mph92%29.96 "Hg12 mi
10:00 PM77 °FMild.5 mph90%29.96 "Hg12 mi
9:00 PM77 °FWarm.5 mph84%29.96 "Hg12 mi
8:00 PM77 °FWarm.2 mph87%29.95 "Hg12 mi
7:00 PM78 °FWarm.6 mph85%29.94 "Hg12 mi
6:00 PM79 °FWarm.7 mph84%29.93 "Hg12 mi
5:00 PM80 °FWarm.7 mph80%29.92 "Hg12 mi
4:00 PM82 °FWarm.7 mph72%29.92 "Hg12 mi
Weather by CustomWeather, © 2016

See weather overviewHow to use our weather pages